Regional Weather Roundup
Issued by NWS Lake Charles, LA

Home | Current Version | Previous Version | Text Only | Print | Product List | Glossary On
Versions: 1 2 3 4 5 6 7 8 9 10 11 12 13 14 15 16 17 18 19 20 21 22 23 24 25 26 27
000
ASUS44 KLCH 171210
RWRLCH
REGIONAL WEATHER ROUNDUP
NATIONAL WEATHER SERVICE LAKE CHARLES LA
600 AM CST SUN DEC 17 2017

Note: "fair" indicates few or no clouds below 12,000 feet with no
significant weather and/or obstructions to visibility.


ACROSS SOUTHEAST TEXAS

CITY           SKY/WX    TMP DP  RH WIND       PRES   REMARKS
BEAUMONT       CLOUDY    54  52  93 N6        30.05R
BEAUMONT CITY  CLOUDY    53  51  92 NW6       30.07R
ORANGE         CLOUDY    55  55 100 CALM      30.07S FOG
JASPER         CLOUDY    49  48  97 CALM      30.09R FOG
$$

ACROSS CENTRAL LOUISIANA

CITY           SKY/WX    TMP DP  RH WIND       PRES   REMARKS
LEESVILLE      CLOUDY    47  47  97 CALM      30.05R
FULLERTON      NOT AVBL
ALEXANDRIA INT LGT RAIN  48  47  96 E5        30.05S
ESLER FIELD    NOT AVBL
DERIDDER       CLOUDY    49  48  95 CALM      30.08R
OAKDALE        CLOUDY    53  51  94 N9        30.04F
OPELOUSAS      RAIN      55  55 100 CALM      30.05R
$$

ACROSS SOUTHWEST AND SOUTH CENTRAL LOUISIANA

CITY           SKY/WX    TMP DP  RH WIND       PRES   REMARKS
SULPHUR        CLOUDY    57  57 100 N5        30.05S
LAKE CHARLES   CLOUDY    58  58 100 N5        30.04S
CHENNAULT INT  CLOUDY    57  55  94 CALM      30.06R
CAMERON PHI    NOT AVBL
DEQUINCY       CLOUDY    52  51  95 CALM      30.06R
JENNINGS       CLOUDY    58  58  98 N6        30.04R
LAFAYETTE      LGT RAIN  62  62 100 N6        30.05R
NEW IBERIA     LGT RAIN  66  63  90 NW7       30.04S
ABBEVILLE      RAIN      63  63 100 N9        30.05R
PATTERSON      CLOUDY    70  68  93 S14G21    30.02R
SALT POINT       N/A     64  64 100 VRB6      30.00R
$$

SELECTED SITES ACROSS THE REGION

CITY           SKY/WX    TMP DP  RH WIND       PRES   REMARKS
HOUSTON BUSH   CLOUDY    49  48  97 NE3       30.07R
HOUSTON HOBBY  CLOUDY    50  49  96 N5        30.06R
GALVESTON      CLOUDY    55  52  89 N9        30.06S
COLLEGE STAT   FOG       43  43 100 CALM      30.08R VSB 1/4
CONROE         CLOUDY    47  47 100 E3        30.06R FOG
HUNTSVILLE     FOG       45  44  97 NE3       30.06R VSB 1/4
LUFKIN         FOG       44  44 100 E3        30.06S VSB 3/4
SHREVEPORT     CLOUDY    45  45 100 E3        30.06R
MONROE         CLOUDY   N/A N/A N/A E3        30.09S
NATCHEZ MS     HVY RAIN  48  47  96 VRB7      30.12R
BATON ROUGE    HVY RAIN  63  62  97 W20       30.04R FOG
N.O. INTL ARPT LGT RAIN  70  68  93 SE16G23   30.04F
SLIDELL        CLOUDY    66  62  87 SE13      30.06F
$$

MARINE REPORTS

STATION/POSITION TIME  SKY/WX   TEMP    WIND        PRES    VSBY
                                AIR SEA DIR/SP/G
                 (UTC)          (F)     (DEG/KT/KT) (MB)    (MI)
BUOY 30 S HIGH I 1050            57 61  340/  8/ 10 1017.1
WVE H/P(F/S)=  4/ 7

SEA RIM ST PARK  1200            55     350/  6/  8 1018.0R
PORT ARTHUR      1142            55 57  360/  5/  7 1017.6R
SABINE PASS N    1142            56 61  360/  8/ 11 1018.8S
TEXAS POINT      NOT AVBL
CALCASIEU PASS   1142            60 58   10/  6/  8 1015.9R
LK CHARLES BEACH 1142            56 58              1016.8F
MARSH ISLAND     NOT AVBL
FRESH WATER LOCK 1148            64 55  310/  5/  8 1016.8R
AMERADA PASS     1142            66 53  150/  6/ 11 1016.3R
$$




USA.gov is the U.S. government's official web portal to all federal, state and local government web resources and services.